Detroit, MI

5:37 AM EDT on June 25, 2017 (GMT -0400)
Detroit City

Weather History for KDET - June, 2014

Change the Weather History Date:

Wednesday, June 18, 2014

  Actual Average Record
Temperature  
Mean Temperature 75 °F -  
Max Temperature 84 °F 80 °F 93 °F (1952)
Min Temperature 66 °F 61 °F 46 °F (1972)
Cooling Degree Days 10    
Growing Degree Days 25 (Base 50)    
Moisture  
Dew Point 64 °F    
Average Humidity 78    
Maximum Humidity 90    
Minimum Humidity 51    
Precipitation  
Precipitation 1.16 in - - ()
Sea Level Pressure  
Sea Level Pressure 30.01 in    
Wind  
Wind Speed 6 mph (East)    
Max Wind Speed 21 mph    
Max Gust Speed 22 mph    
Visibility 8 miles    
Events Rain , Thunderstorm    
Averages and records for this station are not official NWS values.
T = Trace of Precipitation, MM = Missing Value Source: NWS Daily Summary

Daily Weather History Graph

Daily Weather History Graph

Search for Another Location

Airport or City:

Trip Planner

Search our weather history database for the weather conditions in past years. The results will help you decide how hot, cold, wet, or windy it might be!

Date:

Astronomy

Jun. 18, 2014 Rise Set
Actual Time 5:54 AM EDT 9:11 PM EDT
Civil Twilight 5:19 AM EDT 9:46 PM EDT
Nautical Twilight 4:34 AM EDT 10:31 PM EDT
Astronomical Twilight 3:39 AM EDT 11:26 PM EDT
Moon 12:33 AM EDT (6/18) 12:23 PM EDT (6/18)
Length of Visible Light 16h 26m
Length of Day
15h 17m
Waning Gibbous, 63% of the Moon is Illuminated
Jun 18
Waning Gibbous
Jun 19
Last Quarter
Jun 27
New
Jul 5
First Quarter
Jul 12
Full

Hourly Weather History & Observations

Time (EDT) Temp. Heat Index Dew Point Humidity Pressure Visibility Wind Dir Wind Speed Gust Speed Precip Events Conditions
12:53 AM 78.1 °F - 62.1 °F 58% 29.93 in 10.0 mi North 4.6 mph - N/A   Clear
1:53 AM 75.0 °F - 62.1 °F 64% 29.96 in 10.0 mi Calm Calm - N/A   Partly Cloudy
2:53 AM 75.9 °F - 62.1 °F 62% 29.96 in 10.0 mi Calm Calm - N/A   Partly Cloudy
3:53 AM 71.1 °F - 63.0 °F 75% 29.96 in 10.0 mi East 8.1 mph - N/A   Partly Cloudy
4:51 AM 69.8 °F - 60.8 °F 73% 29.97 in 10.0 mi ESE 9.2 mph - N/A Thunderstorm Thunderstorm
4:53 AM 69.1 °F - 60.1 °F 73% 29.96 in 10.0 mi ESE 9.2 mph - 0.00 in Rain , Thunderstorm Light Thunderstorms and Rain
5:06 AM 69.1 °F - 61.0 °F 75% 30.01 in 10.0 mi ENE 4.6 mph - 0.00 in Rain , Thunderstorm Light Rain
5:16 AM 69.1 °F - 60.1 °F 73% 30.03 in 10.0 mi ESE 4.6 mph - 0.00 in Rain , Thunderstorm Light Thunderstorms and Rain
5:53 AM 66.9 °F - 62.1 °F 84% 30.01 in 7.0 mi SE 11.5 mph - 0.09 in Rain , Thunderstorm Light Thunderstorms and Rain
6:20 AM 68.0 °F - 63.0 °F 84% 30.00 in 9.0 mi SE 9.2 mph - 0.02 in Rain , Thunderstorm Light Rain
6:53 AM 66.9 °F - 63.0 °F 87% 30.02 in 10.0 mi Calm Calm - 0.04 in Thunderstorm Scattered Clouds
7:03 AM 66.9 °F - 63.0 °F 87% 30.04 in 10.0 mi NNE 8.1 mph - N/A   Partly Cloudy
7:13 AM 66.9 °F - 63.0 °F 87% 30.05 in 5.0 mi NE 6.9 mph - N/A Thunderstorm Partly Cloudy
7:39 AM 68.0 °F - 63.0 °F 84% 30.12 in 8.0 mi NW 11.5 mph - 0.03 in Rain , Thunderstorm Light Thunderstorms and Rain
7:53 AM 66.9 °F - 63.0 °F 87% 30.08 in 3.0 mi Calm Calm - 0.11 in Rain , Thunderstorm Thunderstorms and Rain
8:17 AM 66.9 °F - 63.0 °F 87% 30.06 in 7.0 mi ESE 9.2 mph - 0.05 in Rain , Thunderstorm Light Rain
8:31 AM 66.9 °F - 63.0 °F 87% 30.04 in 10.0 mi SE 8.1 mph - 0.05 in Rain Light Rain
8:53 AM 66.9 °F - 63.0 °F 87% 30.05 in 10.0 mi East 4.6 mph - 0.05 in   Scattered Clouds
9:53 AM 69.1 °F - 64.0 °F 84% 30.04 in 10.0 mi East 3.5 mph - N/A   Mostly Cloudy
10:53 AM 72.0 °F - 64.0 °F 76% 30.03 in 10.0 mi SSE 3.5 mph - N/A   Clear
11:53 AM 73.9 °F - 64.0 °F 71% 30.04 in 10.0 mi SSE 5.8 mph - N/A   Clear
12:53 PM 80.1 °F 82.3 °F 66.9 °F 64% 30.00 in 10.0 mi South 11.5 mph - N/A   Clear
1:53 PM 82.0 °F 83.8 °F 64.9 °F 56% 30.00 in 10.0 mi SSW 8.1 mph - N/A   Clear
2:53 PM 84.0 °F 85.4 °F 64.0 °F 51% 29.98 in 10.0 mi Variable 3.5 mph - N/A   Clear
3:53 PM 82.9 °F 85.4 °F 66.9 °F 58% 29.96 in 10.0 mi South 6.9 mph - N/A   Clear
4:41 PM 80.1 °F 82.3 °F 66.9 °F 64% 30.01 in 10.0 mi North - - N/A Thunderstorm Mostly Cloudy
4:46 PM 75.0 °F - 66.0 °F 73% 30.06 in 2.5 mi NW 20.7 mph - 0.11 in Rain , Thunderstorm Thunderstorms and Rain
4:51 PM 69.8 °F - 64.4 °F 83% 30.05 in 1.0 mi North 8.1 mph 21.9 mph 0.40 in Rain , Thunderstorm Heavy Thunderstorms and Rain
4:53 PM 69.1 °F - 64.9 °F 87% 30.04 in 1.0 mi Variable 5.8 mph 21.9 mph 0.48 in Rain , Thunderstorm Heavy Thunderstorms and Rain
4:55 PM 68.0 °F - 64.0 °F 87% 30.05 in 0.8 mi Variable 4.6 mph 21.9 mph 0.07 in Rain , Thunderstorm Heavy Thunderstorms and Rain
4:58 PM 68.0 °F - 64.0 °F 87% 30.04 in 1.0 mi Variable 4.6 mph - 0.12 in Rain , Thunderstorm Heavy Thunderstorms and Rain
5:08 PM 69.1 °F - 64.0 °F 84% 30.01 in 3.0 mi SE 4.6 mph - 0.19 in Rain , Thunderstorm Thunderstorms and Rain
5:19 PM 69.1 °F - 64.9 °F 87% 30.01 in 8.0 mi South 6.9 mph - 0.21 in Rain , Thunderstorm Light Thunderstorms and Rain
5:53 PM 69.1 °F - 66.0 °F 90% 29.94 in 8.0 mi SSE 6.9 mph - 0.24 in Rain Light Rain
6:53 PM 71.1 °F - 66.0 °F 84% 29.94 in 10.0 mi SSE 4.6 mph - 0.03 in   Partly Cloudy
7:53 PM 72.0 °F - 66.0 °F 81% 29.95 in 10.0 mi NE 4.6 mph - N/A   Clear
8:53 PM 71.1 °F - 66.0 °F 84% 29.97 in 10.0 mi Calm Calm - N/A   Scattered Clouds
9:42 PM 71.1 °F - 66.0 °F 84% 30.01 in 10.0 mi North 6.9 mph - N/A   Mostly Cloudy
9:53 PM 71.1 °F - 64.9 °F 81% 30.01 in 10.0 mi North 6.9 mph - N/A   Mostly Cloudy
10:53 PM 70.0 °F - 64.9 °F 84% 30.03 in 10.0 mi ENE 3.5 mph - 0.02 in Rain Light Rain
11:44 PM 69.1 °F - 66.0 °F 90% 30.03 in 5.0 mi NNE 3.5 mph - 0.08 in Rain Light Rain
11:53 PM 69.1 °F - 66.0 °F 90% 30.02 in 5.0 mi East 3.5 mph - 0.10 in Rain Rain